Stations météo

réclame
Mon MeteoGroup
Maastricht, Pays-Bas (6380): Température de l'air & dewpoint: 17.10.2018 07:00:00 - 23.10.2018 07:00:00 (CEST)Maastricht, Pays-Bas (6380): Température de l'air 5cm: 17.10.2018 07:00:00 - 23.10.2018 07:00:00 (CEST)Maastricht, Pays-Bas (6380): Vitesse du vent & gusts: 17.10.2018 07:00:00 - 23.10.2018 07:00:00 (CEST)Maastricht, Pays-Bas (6380): Direction du vent: 17.10.2018 07:00:00 - 23.10.2018 07:00:00 (CEST)Maastricht, Pays-Bas (6380): reduced air pressure: 17.10.2018 07:00:00 - 23.10.2018 07:00:00 (CEST)Maastricht, Pays-Bas (6380): visibility: 17.10.2018 07:00:00 - 23.10.2018 07:00:00 (CEST)Maastricht, Pays-Bas (6380): Quantités de précipitations: 17.10.2018 07:00:00 - 23.10.2018 07:00:00 (CEST)
Date & Time tt [°C] td [°C] tt 5cm [°C] ff [km/h] ff [knt] fx [km/h] fx [knt] dd ppp [hPa] vv [km] rr [mm]
23.10.2018 07:00:00 5,9 4,0 5,2 22 12 25 14 SW 1029,4 10 0,0
23.10.2018 06:00:00 5,5 3,8 4,9 18 10 25 14 SW 1030,1 10 0,0
23.10.2018 05:00:00 4,0 3,5 3,5 15 8 22 12 SW 1030,9 10 0,0
23.10.2018 04:00:00 4,3 3,7 3,8 15 8 18 10 SSW 1031,7 10 0,0
23.10.2018 03:00:00 3,4 2,8 2,5 13 7 14 8 SW 1032,8 10 0,0
23.10.2018 02:00:00 3,4 2,8 2,1 13 7 11 6 SW 1033,5 10 0,0
23.10.2018 01:00:00 4,5 3,8 1,9 5 3 7 4 WSW 1033,9 10 0,0
23.10.2018 00:00:00 6,2 4,6 1,2 4 2 11 6 NW 1034,3 10 0,0
22.10.2018 23:00:00 7,5 4,6 5,9 9 5 14 8 NNW 1034,2 10 0,0
22.10.2018 22:00:00 8,2 5,1 6,2 9 5 14 8 NNW 1034,3 10 0,0
22.10.2018 21:00:00 9,7 6,0 8,7 11 6 18 10 N 1034,4 10 0,0
22.10.2018 20:00:00 10,6 5,5 7,9 5 3 11 6 N 1033,6 10 0,0
22.10.2018 19:00:00 11,3 5,4 9,4 9 5 14 8 NNW 1033,3 10 0,0
22.10.2018 18:00:00 11,8 5,4 10,5 9 5 25 14 N 1033,0 10 0,0
22.10.2018 17:00:00 12,9 6,7 12,3 13 7 25 14 N 1032,6 10 0,0
22.10.2018 16:00:00 14,0 6,0 14,3 15 8 29 16 N 1032,4 10 0,0
22.10.2018 15:00:00 13,7 7,0 13,6 22 12 32 18 NE 1032,4 10 0,0
22.10.2018 14:00:00 13,2 9,2 13,1 13 7 29 16 NE 1032,4 10 0,0
22.10.2018 13:00:00 12,3 9,7 12,6 21 11 36 19 NNE 1032,3 10 0,0
22.10.2018 12:00:00 11,7 10,4 12,2 21 11 40 21 NNE 1032,1 10 0,1
22.10.2018 11:00:00 11,0 10,5 11,2 34 18 - - NNE 1031,7 2,9 -
22.10.2018 10:00:00 10,9 10,7 11,0 13 7 22 12 N 1030,6 1,8 0,9
22.10.2018 09:00:00 10,1 9,4 9,9 5 3 7 4 WNW 1029,6 4,5 0,0
22.10.2018 08:00:00 9,4 7,5 9,6 5 3 18 10 SW 1028,7 10 0,0
22.10.2018 07:00:00 9,3 7,0 9,0 5 3 14 8 SSW 1027,9 10 0,0
22.10.2018 06:00:00 8,1 6,8 6,9 9 5 14 8 SSW 1027,6 10 0,0
22.10.2018 05:00:00 9,5 7,2 9,1 8 4 11 6 SSW 1027,1 10 0,0
22.10.2018 04:00:00 9,0 6,8 8,8 9 5 11 6 SW 1027,2 10 0,0
22.10.2018 03:00:00 8,8 6,5 8,4 9 5 14 8 SSW 1027,1 10 0,0
22.10.2018 02:00:00 9,6 7,2 9,5 9 5 11 6 SSW 1027,3 10 0,0
22.10.2018 01:00:00 9,6 7,2 9,0 5 3 7 4 SW 1027,2 10 0,0
22.10.2018 00:00:00 8,3 6,3 5,3 4 2 7 4 - 1027,2 10 0,0
21.10.2018 23:00:00 8,6 6,1 4,1 0 0 7 4 N 1027,0 10 0,0
21.10.2018 22:00:00 9,2 6,0 4,8 4 2 11 6 E 1027,1 10 0,0
21.10.2018 21:00:00 9,9 6,5 4,2 4 2 25 14 - 1027,1 10 0,0
21.10.2018 20:00:00 11,7 6,6 5,9 4 2 7 4 - 1027,0 10 0,0
21.10.2018 19:00:00 13,4 6,4 7,7 4 2 7 4 NNW 1026,7 10 0,0
21.10.2018 18:00:00 15,4 6,6 14,5 0 0 7 4 N 1026,6 10 0,0
21.10.2018 17:00:00 17,0 5,6 18,5 4 2 11 6 - 1026,8 10 0,0
21.10.2018 16:00:00 16,4 5,9 18,1 4 2 11 6 - 1027,3 10 0,0
21.10.2018 15:00:00 16,4 6,7 17,5 4 2 11 6 - 1027,9 10 0,0
21.10.2018 14:00:00 15,0 5,7 17,6 4 2 14 8 - 1028,3 10 0,0
21.10.2018 13:00:00 14,1 6,5 16,2 5 3 11 6 - 1029,0 10 0,0
21.10.2018 12:00:00 12,7 6,4 14,8 5 3 11 6 ENE 1029,4 10 0,0
21.10.2018 11:00:00 11,1 6,6 12,1 5 3 7 4 SSE 1029,7 10 0,0
21.10.2018 10:00:00 7,2 5,4 7,0 4 2 7 4 NW 1029,7 9 0,0
21.10.2018 09:00:00 4,2 3,5 2,2 8 4 7 4 SSE 1029,6 5 0,0
21.10.2018 08:00:00 3,6 3,3 -0,5 4 2 7 4 SW 1029,5 6 0,0
21.10.2018 07:00:00 3,8 3,1 -0,3 2 1 7 4 SW 1029,4 7 0,0
21.10.2018 06:00:00 4,1 3,5 -0,1 5 3 4 2 SSE 1029,8 6 0,0
21.10.2018 05:00:00 4,4 4,0 0,3 8 4 7 4 S 1029,9 5 0,0
21.10.2018 04:00:00 4,3 3,8 -0,7 2 1 4 2 W 1030,4 7 0,0
21.10.2018 03:00:00 4,6 4,3 -0,6 5 3 7 4 SSE 1030,5 6 0,0
21.10.2018 02:00:00 5,1 4,3 -0,1 4 2 7 4 SE 1030,8 7 0,0
21.10.2018 01:00:00 5,6 4,7 0,6 0 0 4 2 N 1030,9 9 0,0
21.10.2018 00:00:00 6,1 4,8 0,7 4 2 4 2 SE 1031,2 10 0,0
20.10.2018 23:00:00 7,3 5,2 3,0 5 3 7 4 NNE 1031,6 10 0,0
20.10.2018 22:00:00 7,8 5,3 2,0 4 2 7 4 ESE 1031,3 10 0,0
20.10.2018 21:00:00 8,0 5,7 2,5 8 4 7 4 ESE 1031,3 10 0,0
20.10.2018 20:00:00 8,7 6,3 3,1 9 5 7 4 E 1031,6 10 0,0
20.10.2018 19:00:00 11,0 6,1 6,1 4 2 11 6 - 1031,3 10 0,0
20.10.2018 18:00:00 12,7 6,3 12,1 9 5 14 8 NNE 1031,0 10 0,0
20.10.2018 17:00:00 13,8 6,5 14,5 8 4 14 8 NE 1031,0 10 0,0
20.10.2018 16:00:00 13,6 6,8 14,8 9 5 18 10 NW 1031,0 10 0,0
20.10.2018 15:00:00 13,3 7,1 14,8 8 4 14 8 NNW 1031,0 10 0,0
20.10.2018 14:00:00 13,0 7,6 14,7 4 2 14 8 N 1031,6 10 0,0
20.10.2018 13:00:00 12,3 8,2 14,2 8 4 11 6 SW 1031,7 10 0,0
20.10.2018 12:00:00 8,4 7,7 9,7 5 3 7 4 SSW 1032,2 6 0,0
20.10.2018 11:00:00 6,5 6,5 7,1 2 1 11 6 - 1032,1 2,4 0,0
20.10.2018 10:00:00 5,7 5,6 6,1 4 2 4 2 - 1031,5 0,3 0,0
20.10.2018 09:00:00 4,1 3,9 2,7 4 2 7 4 - 1030,6 3,7 0,0
20.10.2018 08:00:00 3,6 3,4 1,0 2 1 7 4 SSE 1030,1 0,4 0,0
20.10.2018 07:00:00 5,1 5,0 1,9 4 2 7 4 - 1029,5 0,4 0,0
20.10.2018 06:00:00 5,0 4,7 0,6 2 1 7 4 NNE 1028,7 3,1 0,0
20.10.2018 05:00:00 5,8 5,4 2,3 5 3 11 6 E 1028,3 6 0,0
20.10.2018 04:00:00 6,4 6,0 4,5 9 5 11 6 N 1028,1 8 0,0
20.10.2018 03:00:00 7,0 6,3 2,6 4 2 7 4 - 1027,8 10 0,0
20.10.2018 02:00:00 8,0 6,5 5,7 4 2 11 6 - 1027,4 10 0,0
20.10.2018 01:00:00 9,0 7,2 6,5 5 3 11 6 N 1027,3 10 0,0
20.10.2018 00:00:00 9,1 7,1 7,7 9 5 14 8 N 1026,8 10 0,0
19.10.2018 23:00:00 10,0 7,8 5,5 4 2 11 6 N 1026,6 10 0,0
19.10.2018 22:00:00 10,3 7,5 8,0 5 3 11 6 NNE 1026,2 10 0,0
19.10.2018 21:00:00 12,2 8,1 10,7 8 4 11 6 N 1025,9 10 0,0
19.10.2018 20:00:00 13,5 8,7 12,8 8 4 11 6 N 1025,5 10 0,0
19.10.2018 19:00:00 14,3 8,9 13,3 4 2 14 8 - 1024,5 10 0,0
19.10.2018 18:00:00 15,2 9,1 15,0 8 4 22 12 N 1024,2 10 0,0
19.10.2018 17:00:00 16,3 9,5 17,6 11 6 25 14 NNE 1023,7 10 0,0
19.10.2018 16:00:00 16,2 9,5 17,5 13 7 22 12 ENE 1023,7 10 0,0
19.10.2018 15:00:00 15,8 9,8 17,9 13 7 22 12 NE 1024,1 10 0,0
19.10.2018 14:00:00 15,2 10,0 17,5 13 7 22 12 NE 1024,4 10 0,0
19.10.2018 13:00:00 14,4 10,3 16,6 13 7 22 12 NE 1024,6 9 0,0
19.10.2018 12:00:00 13,2 10,2 13,9 11 6 22 12 E 1024,8 7 0,0
19.10.2018 11:00:00 11,9 9,6 12,7 9 5 14 8 - 1025,1 7 0,0
19.10.2018 10:00:00 11,1 9,4 11,3 9 5 18 10 NE 1025,0 8 0,0
19.10.2018 09:00:00 10,8 9,1 10,8 13 7 18 10 NNE 1024,6 10 0,0
19.10.2018 08:00:00 10,9 9,0 10,8 11 6 18 10 NE 1024,2 10 0,0
19.10.2018 07:00:00 11,2 9,3 11,1 11 6 14 8 NNE 1024,1 10 0,0
19.10.2018 06:00:00 11,7 9,8 11,6 11 6 18 10 NE 1024,2 8 0,0
19.10.2018 05:00:00 11,7 10,0 11,6 11 6 18 10 NE 1024,0 8 0,0
19.10.2018 04:00:00 12,0 10,2 11,8 9 5 22 12 NE 1023,9 7 0,0
19.10.2018 03:00:00 12,0 10,2 11,7 11 6 18 10 NE 1023,9 7 0,0
19.10.2018 02:00:00 11,6 10,2 11,0 9 5 18 10 ENE 1024,2 8 0,0
19.10.2018 01:00:00 11,2 9,7 10,4 11 6 29 16 ENE 1024,4 10 0,0
19.10.2018 00:00:00 12,6 10,4 12,0 15 8 25 14 ENE 1024,5 10 0,0
18.10.2018 23:00:00 12,9 11,0 12,3 16 9 25 14 NE 1024,5 10 0,0
18.10.2018 22:00:00 11,5 10,5 10,6 13 7 18 10 NE 1024,5 10 0,0
18.10.2018 21:00:00 11,9 10,6 11,2 13 7 22 12 NE 1024,3 10 0,0
18.10.2018 20:00:00 12,3 10,7 11,6 15 8 29 16 NE 1024,0 10 0,0
18.10.2018 19:00:00 13,4 11,2 12,6 16 9 25 14 NNE 1023,8 10 0,0
18.10.2018 18:00:00 14,5 11,2 14,3 15 8 29 16 NNE 1023,5 10 0,0
18.10.2018 17:00:00 16,4 11,4 17,1 15 8 29 16 N 1023,4 10 0,0
18.10.2018 16:00:00 16,2 10,2 17,0 16 9 29 16 NNE 1023,6 10 0,0
18.10.2018 15:00:00 16,9 10,7 18,7 15 8 29 16 NE 1023,6 10 0,0
18.10.2018 14:00:00 15,5 10,2 16,0 18 10 32 18 NNE 1023,9 10 0,0
18.10.2018 13:00:00 14,6 10,8 15,1 13 7 29 16 NE 1024,2 10 0,0
18.10.2018 12:00:00 14,1 10,9 14,5 21 11 29 16 NE 1024,3 10 0,0
18.10.2018 11:00:00 13,4 11,0 13,5 21 11 29 16 NNE 1023,9 10 0,0
18.10.2018 10:00:00 13,0 11,5 13,2 15 8 18 10 NNE 1023,6 9 0,0
18.10.2018 09:00:00 13,0 11,4 12,5 9 5 18 10 NE 1023,1 6 0,0
18.10.2018 08:00:00 13,2 11,6 12,9 13 7 29 16 NNE 1022,9 9 0,0
18.10.2018 07:00:00 13,6 12,0 13,3 18 10 22 12 NNE 1022,4 8 0,0
18.10.2018 06:00:00 13,4 12,1 13,2 9 5 14 8 N 1022,1 8 0,0
18.10.2018 05:00:00 13,3 12,1 13,0 9 5 18 10 N 1021,9 6 0,0
18.10.2018 04:00:00 13,1 12,1 12,8 13 7 18 10 N 1021,8 6 0,0
18.10.2018 03:00:00 13,1 12,3 12,8 9 5 14 8 N 1021,7 5 0,0
18.10.2018 02:00:00 12,3 11,7 11,8 9 5 14 8 N 1021,6 4,6 0,0
18.10.2018 01:00:00 12,2 11,5 11,3 9 5 14 8 N 1021,5 6 0,0
18.10.2018 00:00:00 12,6 11,5 11,6 8 4 14 8 N 1021,5 7 0,0
17.10.2018 23:00:00 13,5 11,8 12,4 8 4 14 8 N 1021,3 9 0,0
17.10.2018 22:00:00 14,3 11,9 12,7 8 4 18 10 NNE 1020,9 10 0,0
17.10.2018 21:00:00 15,4 12,5 14,1 9 5 14 8 N 1020,4 10 0,0
17.10.2018 20:00:00 15,8 12,9 14,3 9 5 14 8 N 1020,0 10 0,0
17.10.2018 19:00:00 17,1 12,8 15,2 8 4 18 10 NNW 1019,4 10 0,0
17.10.2018 18:00:00 18,4 12,5 17,2 9 5 14 8 N 1018,8 10 0,0
17.10.2018 17:00:00 20,4 12,7 20,9 9 5 14 8 NNW 1018,6 10 0,0
17.10.2018 16:00:00 20,6 12,6 21,9 4 2 11 6 - 1018,5 9 0,0
17.10.2018 15:00:00 20,6 12,1 22,3 4 2 7 4 - 1018,7 9 0,0
17.10.2018 14:00:00 19,5 12,3 21,2 4 2 7 4 - 1019,0 9 0,0
17.10.2018 13:00:00 17,8 11,9 19,5 4 2 11 6 - 1019,4 8 0,0
17.10.2018 12:00:00 16,9 11,9 18,3 5 3 14 8 WSW 1019,7 8 0,0
17.10.2018 11:00:00 15,2 10,8 16,6 8 4 11 6 WSW 1019,6 7 0,0
17.10.2018 10:00:00 13,3 9,7 12,4 11 6 14 8 SW 1019,4 10 0,0
17.10.2018 09:00:00 11,3 8,5 9,0 5 3 11 6 SSW 1019,0 10 0,0
17.10.2018 08:00:00 11,1 8,3 9,3 9 5 25 14 SSW 1018,8 10 0,0
17.10.2018 07:00:00 11,5 8,7 10,6 13 7 18 10 SSW 1018,7 10 0,0

tt = Température de l'air
td = dewpoint
tt 5cm = Température de l'air 5cm
ff = Vitesse du vent
fx = gusts
dd = Direction du vent
ppp = reduced air pressure
vv = visibility
rr = Quantités de précipitations

stations d'obs. à proximité